CAPE
13 4 8 43 37 22 3 0 0 0 0 0 22 75 134 272 508 680 867 1095 1253 1312 1120 931 972 965 965 829 537 220 41 0 0 2 0 0 4 7 10 29 14 5 14
91 76 70 66 89 59 45 19 0 0 0 0 1 70 148 287 512 794 957 1100 1161 1278 1360 1255 1147 1104 1126 1235 1178 961 386 68 0 0 0 0 0 11 10 12 13 9 2
128 190 145 157 137 84 82 41 19 36 35 20 5 0 0 43 255 638 1017 1178 1219 1286 1343 1387 1381 1254 1180 1175 1214 1353 1146 917 607 254 40 8 1 0 0 0 0 0 2
103 223 267 280 207 177 168 183 93 45 54 31 75 58 72 149 283 553 839 972 1056 1161 1241 1370 1431 1331 1260 1334 1162 996 1163 1023 754 626 663 590 383 302 36 179 193 18 22
92 162 265 242 197 164 128 178 361 357 198 148 92 96 104 214 322 483 731 998 1296 1472 1421 1437 1452 1460 1325 1343 1506 1369 1053 854 841 526 633 712 500 414 325 396 215 217 187
167 150 126 223 276 256 208 149 106 144 336 369 280 233 145 167 206 266 473 510 669 948 1484 1569 1513 1387 1341 1283 1285 1422 1538 1285 1243 1295 1220 1111 1017 903 751 550 471 261 505
286 216 197 204 298 380 407 444 395 245 237 302 378 384 318 212 99 109 214 605 625 571 681 1068 1459 1540 1443 1541 1336 1217 1264 1282 1398 1704 1755 1654 1543 1354 1333 1188 729 387 539
359 344 345 373 385 401 505 611 664 655 523 389 381 482 509 468 309 169 136 442 731 830 845 747 762 885 1146 1178 1330 1497 1542 1501 1312 1347 1552 1790 1858 1945 1835 1538 1072 678 179
415 466 525 579 576 568 588 652 822 1005 1002 835 749 639 632 694 557 433 427 611 755 896 1108 1182 1223 1196 1289 1252 1564 1742 1882 1988 1885 1572 1586 1677 1566 1481 1269 1059 1082 916 757
463 545 663 748 786 844 820 768 866 1092 1221 1429 1382 1358 1160 1058 1002 781 724 1088 1127 1133 1210 1326 1270 1507 1561 1535 1792 2007 2173 2247 2316 2339 1940 1739 1579 1600 1560 1210 1360 1227 852
339 484 654 771 849 896 991 1164 1307 1341 1438 1557 1656 1750 1797 1597 1635 1360 1134 1383 1531 1645 1707 1810 1909 1752 1649 1667 1646 2141 2286 2443 2538 2489 2557 2515 2324 2097 2065 1922 1290 971 794
285 448 578 706 848 1001 1084 1207 1413 1540 1624 1752 1840 1949 2158 2256 2018 1867 1518 1385 1872 2050 2150 2181 2279 2139 2037 2010 1669 1800 2050 2006 2050 2158 2203 2223 2133 2075 1823 1433 1151 774 355
320 304 479 624 968 1120 1206 1350 1546 1725 1812 1901 2082 2173 2315 2419 2531 2145 1944 1714 1606 2138 2393 2549 2540 2405 2326 2053 1856 1927 1489 1601 1781 1946 2007 2014 1861 1392 967 792 380 17 0
1216 1140 875 788 809 1034 1436 1592 1743 1916 2035 2167 2291 2364 2335 2415 2494 2554 2174 1900 1580 1527 1598 2065 2133 2181 2234 2405 2308 1837 1752 1948 2118 2216 1945 1529 846 623 274 52 0 1 0
1554 1805 2000 2071 1970 1790 1504 1476 1803 1999 2122 2287 2335 2345 2438 2495 2464 2571 2599 2558 2524 2456 2395 2176 1994 2155 2281 2186 2100 2066 1737 1490 1600 1414 1177 791 374 19 0 1 0 0 0
595 699 898 1359 1980 2326 2030 1699 579 909 1042 1287 1634 2201 2698 2623 2630 2565 2597 2675 2741 2507 2395 2691 2545 2356 2338 2358 2376 2129 1520 1369 1202 848 415 156 4 1 0 0 0 1 0
2 117 268 473 703 1032 1632 2107 1976 1050 414 819 1106 1355 1395 2534 2532 2752 2747 2242 1826 1782 2700 2590 2630 2625 2611 2440 2233 1863 1692 1016 434 173 70 0 1 0 1 1 1 0 0
0 0 78 273 514 894 1196 1418 1481 1931 1868 1586 380 891 1121 1365 1821 2107 1847 1651 2135 1573 2665 2694 2671 2512 2330 2162 1846 1498 961 306 71 0 0 0 2 1 1 1 1 0 0
0 0 0 21 336 562 912 1313 1499 1659 1867 1904 1185 675 174 440 990 1138 1214 2984 3026 2333 1929 2052 1906 1678 1617 1482 1187 733 332 39 0 0 0 1 2 0 0 0 0 0 0
0 0 0 0 7 289 698 1036 1474 1733 1972 1732 1491 1658 578 409 1550 1741 1532 1768 2083 1987 1512 1451 1123 900 837 627 326 38 0 0 0 0 0 1 0 0 0 0 1 0 0
0 0 0 0 0 149 551 718 1096 1441 1670 1799 1663 1129 906 1432 1514 1367 1402 1143 1119 1132 999 810 501 343 102 0 0 0 0 0 0 0 1 0 0 0 0 0 0 0 0
0 0 0 0 0 2 524 714 704 739 1180 1427 1127 538 451 821 950 865 739 510 162 68 37 3 0 0 0 0 0 0 0 0 0 1 1 2 0 0 0 0 0 0 0
0 0 0 0 0 0 230 771 948 923 917 814 738 519 318 543 396 104 3 0 0 0 0 0 0 0 0 0 0 0 0 0 0 2 1 0 0 1 2 1 0 0 0
0 0 0 0 0 4 216 558 437 367 387 388 309 128 19 1 0 0 0 0 0 0 0 0 0 0 0 0 0 0 0 0 0 0 0 0 0 0 0 0 0 0 0
2 0 0 0 0 86 43 24 7 0 1 2 1 0 0 0 0 0 0 0 0 0 0 0 0 0 0 0 0 0 0 0 0 0 0 0 0 0 0 0 0 0 0
4 2 0 1 1 1 1 2 3 3 4 3 2 0 1 1 1 1 1 0 0 0 0 0 0 0 0 0 0 0 0 0 0 0 0 0 0 1 0 0 0 0 0
CIN
-471 -298 -394 -370 -372 -367 -363 -19 0 0 0 0 -262 -185 -161 -149 -115 -98 -82 -60 -47 -45 -84 -127 -123 -131 -133 -167 -248 -341 -426 0 0 -305 0 0 -195 -394 -378 -402 -428 -131 -399
-416 -416 -395 -388 -389 -377 -384 -370 0 0 0 0 -80 -215 -181 -168 -139 -106 -84 -83 -83 -72 -76 -104 -108 -116 -136 -121 -139 -181 -288 -402 0 0 0 0 0 -442 -451 -431 -440 -473 -324
-456 -414 -400 -420 -430 -399 -386 -391 -379 -317 -305 -317 -67 0 0 -249 -193 -150 -109 -86 -98 -102 -98 -103 -96 -107 -137 -151 -160 -153 -184 -205 -256 -366 -444 -101 -123 0 0 0 0 0 -444
-500 -440 -386 -402 -407 -386 -364 -348 -354 -365 -339 -346 -315 -304 -283 -246 -219 -186 -156 -152 -144 -138 -143 -139 -126 -131 -145 -147 -173 -193 -178 -188 -241 -289 -299 -342 -398 -384 -504 -349 -335 -453 -433
-534 -516 -442 -435 -428 -442 -446 -396 -323 -311 -332 -333 -349 -353 -346 -289 -267 -252 -213 -173 -146 -134 -135 -141 -150 -149 -158 -155 -138 -163 -202 -224 -235 -317 -314 -326 -389 -379 -348 -318 -372 -336 -423
-545 -532 -511 -471 -445 -445 -442 -447 -456 -423 -371 -363 -366 -376 -384 -376 -341 -324 -277 -257 -229 -197 -136 -142 -156 -179 -198 -195 -196 -169 -153 -193 -200 -184 -232 -262 -289 -274 -286 -315 -306 -348 -293
-523 -498 -526 -529 -511 -465 -455 -445 -439 -453 -482 -464 -419 -410 -417 -432 -442 -423 -374 -287 -290 -312 -294 -230 -192 -197 -210 -201 -250 -279 -282 -264 -213 -146 -163 -191 -219 -189 -167 -191 -282 -335 -259
-484 -517 -545 -543 -530 -520 -492 -469 -439 -426 -458 -483 -474 -434 -414 -434 -450 -473 -476 -380 -335 -337 -352 -363 -358 -329 -319 -308 -284 -281 -288 -284 -288 -226 -183 -170 -125 -105 -62 -99 -167 -224 -356
-495 -502 -500 -537 -499 -504 -497 -467 -422 -379 -398 -433 -440 -466 -464 -448 -473 -474 -475 -441 -434 -412 -376 -374 -377 -378 -354 -348 -292 -277 -276 -247 -247 -274 -237 -196 -202 -199 -219 -200 -166 -120 -166
-462 -448 -515 -502 -498 -473 -460 -444 -450 -422 -397 -352 -361 -380 -433 -433 -456 -489 -499 -402 -412 -422 -415 -419 -436 -390 -357 -344 -290 -253 -253 -236 -191 -184 -249 -253 -253 -180 -148 -178 -141 -90 -90
-570 -564 -536 -513 -491 -492 -471 -451 -443 -429 -401 -382 -353 -345 -345 -397 -381 -438 -473 -400 -382 -369 -381 -376 -370 -388 -385 -377 -372 -264 -248 -201 -184 -182 -159 -157 -177 -187 -145 -106 -125 -99 -80
-577 -505 -494 -509 -526 -520 -491 -471 -445 -424 -407 -385 -370 -362 -347 -330 -374 -390 -440 -469 -361 -340 -346 -343 -326 -333 -332 -316 -381 -352 -289 -285 -265 -238 -213 -196 -197 -185 -187 -206 -191 -191 -214
-556 -428 -519 -509 -527 -502 -484 -462 -452 -440 -420 -399 -369 -348 -335 -320 -303 -364 -391 -435 -457 -357 -322 -287 -272 -292 -288 -326 -352 -323 -398 -367 -319 -282 -245 -235 -231 -295 -339 -315 -355 -41 0
-464 -468 -537 -528 -547 -543 -509 -474 -446 -440 -425 -394 -375 -357 -327 -316 -304 -282 -356 -417 -488 -504 -490 -370 -353 -323 -296 -253 -254 -336 -353 -300 -256 -221 -247 -306 -443 -468 -506 -422 0 0 0
-435 -402 -369 -359 -378 -406 -483 -494 -445 -419 -407 -372 -357 -339 -312 -311 -293 -272 -269 -276 -279 -293 -297 -352 -392 -329 -288 -286 -288 -284 -350 -400 -354 -362 -381 -449 -549 -379 0 0 0 0 0
-553 -555 -538 -442 -342 -299 -348 -425 -778 -699 -657 -594 -497 -390 -314 -305 -276 -262 -258 -244 -223 -255 -285 -249 -267 -276 -253 -241 -228 -264 -383 -405 -420 -474 -563 -613 -70 0 0 0 -1 -1 0
-72 -683 -640 -588 -533 -463 -377 -316 -317 -568 -810 -687 -605 -546 -552 -301 -271 -213 -193 -279 -369 -362 -193 -224 -195 -187 -176 -193 -228 -289 -309 -449 -590 -658 -683 0 0 0 0 0 0 0 0
0 0 -667 -592 -525 -439 -385 -354 -359 -309 -314 -379 -824 -637 -577 -503 -357 -268 -321 -364 -253 -376 -171 -159 -160 -178 -193 -208 -266 -332 -445 -622 -734 0 0 0 0 0 0 0 0 0 0
0 0 0 -679 -548 -476 -404 -330 -318 -313 -285 -293 -471 -669 -900 -787 -555 -477 -435 -86 -92 -169 -212 -215 -249 -281 -290 -314 -370 -468 -595 -655 0 0 0 -1 0 -1 -4 0 0 0 0
0 0 0 0 -230 -509 -400 -340 -278 -253 -226 -290 -344 -317 -615 -715 -341 -280 -324 -259 -193 -203 -284 -279 -364 -428 -434 -497 -609 -286 0 0 0 0 0 -2 -2 0 0 0 0 0 0
0 0 0 0 0 -567 -388 -357 -302 -258 -239 -248 -297 -432 -478 -325 -312 -339 -305 -348 -333 -330 -362 -419 -535 -608 -726 0 0 0 0 0 0 0 0 -3 0 -1 0 0 0 0 0
0 0 0 0 0 -307 -399 -337 -359 -372 -312 -300 -383 -590 -637 -458 -400 -421 -465 -543 -783 -582 -610 -521 0 0 0 0 0 0 0 0 0 0 0 0 -2 0 0 0 0 0 0
0 0 0 0 0 -339 -528 -318 -277 -298 -335 -391 -437 -532 -662 -537 -604 -809 -403 0 0 0 0 0 0 0 0 0 0 0 0 0 0 0 0 0 0 0 0 0 0 0 0
0 0 0 0 0 -792 -501 -348 -380 -437 -454 -483 -565 -708 -266 -131 0 0 0 0 0 0 0 0 0 0 0 0 0 0 0 0 0 0 0 0 0 0 0 0 0 0 0
0 0 0 0 0 -442 -507 -548 -473 0 0 0 0 0 0 0 0 0 0 0 0 0 0 0 0 0 0 0 0 0 0 0 0 0 0 0 0 0 0 0 0 0 0
0 0 0 0 0 0 0 0 0 0 0 0 0 0 0 0 0 0 0 0 0 0 0 0 0 0 0 0 0 0 0 0 0 0 0 0 0 0 0 0 0 0 0
Wind_Speed
34 37 46 39 28 33 33 36 36 33 28 25 24 22 22 20 19 19 22 22 22 22 22 21 22 20 21 21 20 18 16 11 10 8 0 1 2 2 3 4 5 7 8
24 28 25 23 19 34 34 36 34 32 26 23 23 26 25 21 18 18 21 21 23 22 23 23 24 23 25 25 23 20 16 11 8 12 6 7 8 7 7 9 10 10 11
24 30 38 22 20 39 38 35 32 30 29 26 25 27 29 29 23 20 20 21 22 23 23 25 27 25 28 27 22 19 15 10 9 12 15 9 10 11 12 13 14 15 15
23 31 43 27 37 44 44 36 33 33 32 30 28 29 29 28 27 24 22 21 21 25 25 25 28 28 28 25 21 17 12 11 11 14 13 15 12 14 16 17 18 19 20
19 28 45 41 41 39 46 40 37 35 34 31 28 29 29 29 29 27 23 24 24 28 29 28 28 27 26 22 16 12 9 10 9 11 13 13 14 15 17 20 22 23 23
18 20 34 36 36 42 46 43 40 38 33 26 27 25 26 28 29 28 24 27 30 32 31 29 28 26 24 22 20 18 12 9 10 11 15 17 19 18 19 21 23 25 27
19 20 28 34 36 45 43 42 41 33 18 24 24 23 26 30 31 29 28 29 31 33 32 29 24 19 18 16 17 19 18 18 17 15 19 18 21 19 20 22 23 24 26
21 23 25 29 37 34 35 41 38 14 18 20 23 29 30 31 29 28 29 30 32 33 30 27 24 21 12 11 13 15 14 13 13 15 18 20 19 18 18 19 22 24 26
24 23 20 24 26 26 30 31 28 21 11 22 27 31 29 33 29 27 24 25 31 31 29 24 19 18 14 12 14 16 16 13 13 14 15 15 15 14 15 18 21 25 27
20 24 23 26 28 28 27 27 28 31 37 39 36 29 27 30 27 25 23 22 28 22 19 19 19 15 12 13 16 15 17 13 12 12 13 12 13 14 15 17 21 25 27
21 21 22 24 28 29 25 21 18 15 26 35 29 34 30 20 14 14 17 17 16 20 16 16 15 12 14 15 15 13 13 12 11 12 15 15 14 13 16 20 22 23 24
16 16 17 23 26 25 24 22 20 16 13 14 29 38 28 11 17 18 18 20 18 15 13 23 21 16 12 12 12 13 13 12 12 14 15 16 15 16 18 20 22 20 17
22 25 18 21 25 27 25 23 21 19 21 23 22 32 30 19 12 14 14 17 20 20 16 13 19 18 15 13 13 12 12 13 12 14 15 16 15 18 20 23 24 22 20
20 19 19 21 25 25 28 27 24 22 23 25 25 29 27 23 20 18 12 13 14 15 16 15 18 21 20 19 18 17 15 14 13 14 15 17 18 21 23 23 23 19 19
13 14 16 17 20 26 25 28 29 29 27 27 26 26 25 24 20 17 16 15 13 17 18 23 23 22 22 20 19 18 16 14 13 15 17 18 20 22 22 21 18 16 16
16 17 18 19 20 22 25 29 30 31 31 30 29 28 28 27 25 22 19 17 15 14 19 21 21 21 21 20 17 15 13 13 13 15 17 18 18 19 19 19 16 14 13
19 20 21 22 25 27 28 31 34 34 33 35 34 33 33 32 29 26 23 20 18 19 22 23 23 22 20 17 15 14 14 14 14 16 17 15 16 16 15 16 15 13 11
24 24 24 24 25 27 29 32 33 35 36 35 32 32 33 32 29 25 23 21 24 23 21 21 20 19 18 16 15 14 14 14 15 15 14 14 13 13 14 16 13 11 8
27 26 25 25 25 26 28 30 32 34 34 34 32 30 29 28 26 24 21 24 23 22 20 21 20 19 18 16 15 13 13 14 13 13 13 12 11 11 14 12 10 8 7
32 31 29 28 29 30 30 30 29 29 29 29 28 27 23 20 21 21 20 22 23 24 22 20 18 17 15 15 14 14 13 12 13 14 13 12 10 11 12 9 8 6 6
36 36 35 33 32 34 35 34 32 31 30 29 28 24 20 21 21 19 19 19 21 20 18 17 17 17 16 15 13 12 13 14 14 13 13 11 10 10 9 8 6 6 4
39 40 37 37 35 35 38 38 37 34 32 31 27 23 19 21 20 18 17 17 17 17 17 17 17 16 15 14 14 14 15 14 13 11 11 10 8 8 8 7 5 3 2
41 41 39 37 35 34 35 36 37 36 33 30 26 23 20 18 18 17 17 17 15 15 16 16 16 17 17 16 14 13 12 11 11 10 10 9 8 8 8 7 3 3 5
44 43 42 41 39 37 35 34 35 33 31 28 26 23 21 19 17 16 16 16 16 16 17 17 17 17 16 15 15 14 13 13 11 10 9 9 8 8 9 8 5 5 6
44 44 42 41 38 36 33 32 31 29 26 24 22 20 19 18 17 18 16 16 16 16 17 17 17 16 17 17 16 15 14 13 12 11 10 10 10 10 11 8 6 6 7
36 33 32 31 30 30 30 30 28 25 23 24 20 17 17 18 18 17 16 16 15 15 15 17 16 16 16 17 17 17 14 14 13 11 11 10 10 12 11 9 8 9 8
Wind_Direction
237 238 226 200 190 192 194 199 202 200 192 189 190 190 192 189 186 186 193 194 194 196 196 194 198 197 203 206 205 203 200 187 210 222 227 10 290 310 313 311 301 282 280
229 237 205 236 230 192 194 198 198 197 191 189 189 197 198 191 186 187 193 194 199 200 204 203 207 206 214 218 216 215 212 206 219 246 271 270 265 292 301 311 306 304 293
230 238 238 235 206 196 197 196 195 195 196 193 193 199 204 205 197 193 194 196 200 204 206 209 214 210 222 221 216 217 218 223 235 246 256 292 305 321 315 310 303 302 299
230 238 232 236 193 203 205 197 196 198 199 198 198 202 203 204 204 202 200 201 204 210 210 210 215 215 221 220 218 222 229 241 247 249 263 268 294 319 323 312 305 314 299
220 238 228 235 236 238 221 200 199 200 201 200 200 203 205 206 208 207 204 206 208 216 218 215 216 215 217 217 217 225 235 244 258 260 268 281 293 308 312 325 316 315 309
197 230 238 237 239 233 212 206 204 204 201 198 202 203 206 208 210 210 208 212 216 220 221 220 220 217 219 222 225 229 236 252 261 277 272 278 285 306 314 312 313 320 322
190 231 239 237 236 226 228 233 207 198 200 200 203 204 208 212 213 213 213 213 217 220 221 219 217 216 220 226 231 235 239 242 250 267 271 282 287 307 309 311 315 318 315
232 237 240 240 236 241 242 233 240 238 200 200 203 207 211 213 212 212 212 213 217 220 218 218 219 221 231 236 238 240 248 260 269 274 272 280 287 296 308 313 319 319 322
231 235 235 237 241 244 245 248 253 260 239 197 203 208 208 215 210 209 206 208 215 217 218 217 218 221 229 234 237 245 255 273 298 282 280 281 288 293 309 324 321 324 321
229 236 239 242 244 246 250 254 256 255 248 238 217 206 206 211 207 206 205 206 213 213 216 219 222 230 246 243 241 250 257 282 300 305 320 296 289 297 308 319 323 326 328
239 238 240 244 244 246 252 258 261 263 263 219 206 216 209 203 210 211 207 208 213 285 282 286 286 263 243 241 245 258 268 285 302 316 325 330 330 322 327 334 336 332 331
235 233 239 247 249 252 255 261 264 266 261 271 244 231 252 221 211 211 213 213 216 225 261 291 294 291 274 256 259 259 260 273 303 314 323 326 329 333 338 340 339 337 338
244 247 253 253 252 254 258 261 265 267 269 273 278 268 275 285 274 224 228 223 221 224 232 273 293 293 286 280 273 276 293 304 308 316 321 327 334 342 345 347 352 359 4
250 255 258 261 256 258 258 259 263 266 269 273 276 274 280 287 291 293 277 267 248 262 247 265 288 297 297 297 300 301 303 304 307 318 329 335 342 346 349 355 0 14 27
258 263 266 267 265 258 261 260 262 265 269 274 278 280 282 288 293 293 295 292 286 286 289 293 294 294 296 297 299 301 304 308 313 324 331 336 342 348 356 6 18 26 30
260 264 268 270 271 270 267 264 267 269 272 275 278 280 281 285 290 292 291 290 288 290 297 296 296 296 295 297 299 301 303 307 315 325 331 336 344 353 4 13 22 26 34
270 271 275 277 277 276 274 270 270 270 274 274 276 277 279 283 285 288 289 290 293 294 294 295 296 297 295 295 298 300 300 307 318 324 330 339 347 357 7 12 17 25 40
276 277 279 282 285 286 283 279 276 274 275 279 281 281 281 282 284 287 287 290 292 292 293 294 295 295 296 296 296 297 303 310 316 323 331 339 347 357 2 5 15 25 50
275 275 279 283 286 290 291 288 282 278 279 281 283 284 286 287 286 284 281 284 287 291 294 295 296 297 297 296 297 299 303 308 313 321 327 334 344 352 354 7 20 31 58
274 275 278 284 288 287 288 289 290 290 288 287 286 286 287 288 289 288 285 283 286 290 294 298 301 303 303 302 302 303 306 308 313 317 323 328 335 342 351 7 17 34 61
274 272 276 282 287 286 283 285 288 291 293 294 289 287 283 285 287 289 289 287 288 293 295 297 300 303 304 305 305 304 306 308 310 314 321 327 333 341 353 3 17 28 49
274 272 278 283 288 288 284 283 286 290 293 293 293 292 284 285 286 287 290 293 293 295 297 298 299 301 303 302 302 303 303 304 307 312 319 326 334 341 345 350 356 14 16
275 275 279 283 286 288 289 288 287 290 292 291 289 285 284 282 282 283 288 294 297 299 302 301 301 302 304 304 304 303 302 302 310 312 317 323 329 337 340 342 337 316 323
276 277 278 279 282 285 286 288 289 291 293 293 288 284 279 278 281 284 288 289 295 301 306 306 306 305 305 306 305 304 302 304 306 307 307 312 319 326 326 324 312 296 299
278 277 279 279 279 281 283 287 291 291 293 294 292 285 282 281 282 285 289 293 295 299 305 307 308 308 307 307 308 308 308 308 308 310 307 303 303 309 317 315 310 303 298
288 285 280 280 280 280 283 286 290 290 293 297 290 286 285 288 285 287 290 293 298 302 304 307 309 310 311 312 313 312 311 310 311 311 318 319 310 305 305 298 299 299 294